CLASSIFICA

MATTA CORSA

Campogalliano (MO)

(07/10/2017)

DIVISIONI:
COMPETITIVA     NC     TEAM     CLASSIFICA:   ASSOLUTA    M     F    
CATEGORIE:   TUTTE    |   F   |   M  
FILTRO:
  Atleta      Team        Pulisci       Atleti classificati COMPETITIVA: 304  

Cliccare sulle colonne per cambiare ordinamento Pagina:   | 1 | | 2 | | 3 | | 4 | | 5 | | 6 | | 7 |
Azioni Pos. M/F Pett Naz Atleta Squadra Tempo Braccialetti
11253KADIJA RIGERSINFERNO TEAM01:52:10 3
22302SINIGALLIA WILLIAMTEAM DAS01:52:30 3
33255DEL PIANO ANDREAINFERNO TEAM01:59:11 3
44301BONAITA ALEXTEAM VIBRAM02:01:43 3
55237CAZZAVACCA ALESSANDROTEAM WRI02:01:48 3
66257MACCHIAVELLO CLAUDIOINFERNO TEAM02:03:03 3
77395MORGANTE GIUSEPPELIFE REVOLUTION 201602:05:18 3
88285SPIRITO SIMONEREEBOK OCR TEAM ITALY02:06:52 3
99256HERD-SMITH MARTININFERNO TEAM02:15:44 3
1010385ANSACOV VEACESLAVTEAMOCRHEROES02:28:29 3
1111215BONESI SAMUELDONKEY WARRIORS TEAM02:41:42 3
1212143BERTOLASI MARCODONKEY WARRIORS TEAM03:13:33 3
1313232PALVARINI ANDREAAPFIT03:13:44 3
1414110DALESSANDRO MARCONEW GYM SPORT SSD03:14:19 3
1515202CHECCACCI LORENZOINDIVIDUALE03:15:42 3
1616190SALTINI GIANCARLOINDIVIDUALE03:34:02 3
1717189ROVESTI MICHAELDONKEY WARRIORS TEAM03:50:20 3
1818364BONELLI DIEGO FRANCESCOSHB TEAM03:53:30 3
1919139ARNONE MATTEONEW GYM SPORT SSD04:02:10 3
2020221PELUSI JACOPOINDOMITI04:05:01 3
2121309COLOMBO STEFANOTEAMOCRHEROES01:46:55 2
2222130CARMIGNANI ALESSIOTEAMOCRHEROES01:50:25 2
2323234VINCI MAURIZIOASIA WARRIORS TEAM02:02:20 2
2424286MORICONI MANUELREEBOK OCR TEAM ITALY02:06:52 2
2525267VILLANI MARCOTEAM WRI02:13:50 2
2626299TUANI ARMANDOSHB TEAM02:21:33 2
2727434DODI FRANCESCOATLETA INDIVIDUALE02:41:40 2
2828210GIACONE MASSIMOINDIVIDUALE02:50:49 2
2929335MANCA BRUNOTEAM DAS02:51:02 2
3030276TODARO MASSIMILIANONEVER GIVE UP03:00:54 2
3131162GRITTI CURZIOINDIVIDUALE03:11:14 2
3232148BELLODI ANDREADONKEY WARRIORS TEAM03:11:15 2
3333311DI GAETANO GIOVANNIOCR HEROES03:13:32 2
3434358COLOMBO MARCOINDIVIDUALE03:18:02 2
3535154ANDERINI AMOSINDIVIDUALE03:20:52 2
3636291ROSSETTI CRISTIANREEBOK OCR TEAM ITALY03:23:26 2
3737163TODARO MICHAEL JUNIORNEVER GIVE UP03:25:37 2
3838153GARDINI ANDREAINDIVIDUALE03:25:59 2
3939124CAGLIOTI VINCENZONEW GYM SPORT SSD03:39:02 2
4040204CULAZZO MIRCOINDIVIDUALE03:40:39 2
4141243CATELLANI MIRCODONKEY WARRIORS TEAM03:41:58 2
4242117GRASSI STEFANOINDIVIDUALE03:59:40 2
4343312NAZHA ALITEAM WARRIOR RACE ITALIA04:01:01 2
4444377BARLETTA ENRICOKARMA SPARTAN04:01:04 2
4545333FERRETTI ROBERTODONKEY WARRIORS TEAM04:01:12 2
4646278RAVIZZA MARCO ALFREDOINDIVIDUALE04:03:10 2
4747383RAVIZZA ALESSANDROINDIVIDUALE04:03:10 2
4848354ZANONI MATTEODONKEY WARRIORS TEAM04:11:30 2
4949140BICCHI ENRICOBARBAROSSA TEAM02:11:00 1
5050263DONDEYNAZ DIDIERLO SAYOC CHAMPOLUC02:33:09 1
5151114MANTOVANI DANIELEINDIVIDUALE02:34:38 1
5252151DINARDO GIAMPIEROFTP TEAM02:35:35 1
5353165TRIACCA STEFANOINDIVIDUALE02:46:35 1
5454205MARABINI ROBERTOINDIVIDUALE02:52:06 1
5555141OPPOLITI ALBERTOBARBAROSSA TEAM03:01:36 1
5656387SAPONI ANDREAINDIVIDUALE03:04:49 1
571220BONGIOVANNI SARASHB TEAM03:17:21 1
5857175BELIGNI LORENZOINDIVIDUALE03:20:51 1
5958342ANGUSTI RUGGEROTEAM WRI03:20:59 1
6059362LINDIRI FABIO FRANCESCOSHB TEAM03:21:41 1
6160233MADDALONI MARCOASIA WARRIORS TEAM03:22:05 1
6261416GIORNI PAOLOTEAM MERRELL03:22:25 1
6362378GIUSTI JACOPOUGLY PEOPLE03:22:33 1
6463317ZANETTI PAOLOTULIPANO VOLANTE03:23:34 1
6564322NURISSO MAUROCELTIC TEAM03:24:16 1
6665222DORAZIO ERMANNOMAXIMUS CROSS RUN03:26:12 1
6766341ROMANO RAIMONDOINDIVIDUALE03:34:19 1
6867373FABIANI MARCOPROCOSMET ITALY03:40:09 1
6968201PELLEREI LUCACELTIC TEAM03:45:09 1
7069431BONFANTI ANDREAATLETA INDIVIDUALE03:45:11 1
7170142CLEMOT MASSIMILIANOFTP TEAM03:47:20 1
7271272MOLTENI EDOARDOMOLTENI CROSS TRAINING03:50:20 1
7372353BONESI DAVIDEDONKEY WARRIORS TEAM03:51:25 1
7473247VITALITI ANDREAFTP TEAM03:53:15 1
752251HARTAN DIANA MARIAINFERNO TEAM03:56:18 1
7674219CIAVARELLA GIUSEPPENEW GYM SPORT SSD03:58:46 1
7775241TROMBELLI MARCOTEAM DAS03:59:54 1
7876168GIVA CRISTIANGRAY WOLF04:00:03 1
7977245MACALUSO EZIOEZIO MAC04:05:04 1
8078374SEPE MASSIMILIANOINDIVIDUALE04:06:43 1
8179438BERTOLASI LUCAPROCOSMET ITALY04:10:27 1
8280345BOTTONI LUCAVERONA FORCE RUN04:11:10 1
8381274ZUCCHINALI ALESNEVER GIVE UP04:11:18 1
8482357BONESI CRISTIANDONKEY WARRIORS TEAM04:18:10 1
8583334ANDRUCCIOLI MATTIAINDIVIDUALE02:08:54 0
863258CUSSEAU GINEVRAINFERNO TEAM02:15:56 0
8784193CARNEVALI MATTEOINDIVIDUALE02:27:28 0
8885161COFFETTI MARCOINDIVIDUALE02:28:31 0
8986183MASTRINI MARVININDIVIDUALE02:30:43 0
9087361SACCANI LUCADONKEY WARRIORS TEAM02:35:32 0
9188122MONTAGNANI LUCAINDIVIDUALE02:36:58 0
9289126RAINERO ALESSANDROINDIVIDUALE02:37:24 0
9390203LORUSSO PIERANGELOINDIVIDUALE02:41:10 0
9491128LOPES MASSIMOINDIVIDUALE02:44:09 0
954330BARDELLINI PAOLALEGIO VII02:44:49 0
965344DI SALVO SARAINDOMITI02:45:36 0
9792239ENEI GRAZIANOTEAM DAS02:46:27 0
9893191BRUSAROSCO NICOLAINDIVIDUALE02:46:31 0
9994369GATTUS SIMONENATURE RACE02:50:52 0
10095157GIUSTIZIA ANGELOINDIVIDUALE02:52:11 0
10196230BONFANTI LUCAAGOGH» SPARTAN02:57:05 0
10297356GHINZELLI DARIODONKEY WARRIORS TEAM03:01:14 0
10398315TIRELLI NICCOL“TIRRO03:01:16 0
10499363BARALDI DAVIDEDONKEY WARRIORS TEAM03:01:57 0
105100105PAPALINI FABIOTHE MASTER BROTHER'S03:02:42 0
106101347DEPEDRI RAFFAELEVERONA FORCE RUN03:04:44 0
107102194FIORE ANTONIOINDIVIDUALE03:05:35 0
108103306COLETTI CRISTIANMERREL03:08:37 0
109104264ANDREOTTI GIACOMOLUCCA WARIOR OCR03:08:59 0
110105313CELESTE GIANPAOLOTHE CREEZY RUM03:11:54 0
111106118BRESSAN SIMONEINDIVIDUALE03:13:19 0
112107167PELIZZA MATTEOTEAM WRI03:14:03 0
113108390PICINELLI MANUELINDIVIDUALE03:14:16 0
114109396NEGRO LORENZOINDIVIDUALE03:15:38 0
115110393LOVATO FABIOINDIVIDUALE03:15:38 0
116111269DI MIELE ANDREAMERREL03:15:51 0
1176192GORI GIULIAINDIVIDUALE03:16:31 0
118112386CALLEGARI ENRICOFARM RUN OCR TEAM03:16:44 0
119113195MARINELLI ANDREAINDIVIDUALE03:16:56 0
120114389BORDINI SANTUCCI ANDREAFARM RUN OCR TEAM03:17:27 0
121115332VALLERANI FRANCESCOASIA WARRIORS TEAM03:18:51 0
122116136CARNINO ANDREANEW GYM SPORT SSD03:19:38 0
1237152MIRANDA HERNANDEZ VIRGINIAFTP TEAM03:20:04 0
124117217BONGIOVANNI NICOINDIVIDUALE03:20:08 0
1258288CORBETTA GLORIAREEBOK OCR TEAM ITALY03:21:03 0
1269209MERENDA LUANAINDIVIDUALE03:21:30 0
12710223CARACCI GIORGIAMAXIMUS CROSS RUN03:21:51 0
128118179CAMPITELLI ROBERTOINDIVIDUALE03:22:12 0
129119242PUPPI ALESSANDROCROSS TRAINING ACADEMY03:22:23 0
13011307TRIPANI MARGHERITAMERREL03:22:24 0
131120101IRRERA MARCOINDIVIDUALE03:22:24 0
13212146TEDESCHI ELISAINDIVIDUALE03:23:26 0
133121177RIPAMONTI PAOLOINDIVIDUALE03:24:05 0
134122200TRIBAN MATTEOCELTIC TEAM03:26:17 0
135123164CAMBIAGHI GABRIELEINDIVIDUALE03:26:25 0
136124308CINI ROLANDOMERREL03:26:45 0
137125185PEZZATINI MICHELEINDIVIDUALE03:27:41 0
13813174IANNELLO FEDERICADIRTY DANCER03:29:14 0
13914211ACQUADRO ELENACELTIC TEAM03:29:47 0
140126150CHIAVAROLI FABIOINDIVIDUALE03:29:50 0
141127206POTASSO LUCAINDIVIDUALE03:30:30 0
142128119BONGIORNO SANDROINDIVIDUALE03:32:39 0
143129180BONGIORNO FAUSTOINDIVIDUALE03:32:44 0
144130343PLUTINO RICCARDOBOMBER03:32:54 0
145131172CAVALLINI GIACOMO LUIGIINDIVIDUALE03:32:57 0
146132384BUBBOLA TIZIANOINDIVIDUALE03:34:12 0
147133127GNECCHI MARCOINDIVIDUALE03:34:21 0
148134125QUADRACCIA ALESSANDROINDIVIDUALE03:34:24 0
149135325PERAZZINI CRISTIANROMAGMA WILDE RACE03:34:38 0
150136324ROSSI ROBERTOROMAGMA WILDE RACE03:34:41 0
151137368MORICONI MORENOINDIVIDUALE03:35:54 0
15215212GARZA ALESSIADIRTY DANCER03:36:11 0
15316290GELONESE GIADAREEBOK OCR TEAM ITALY03:37:34 0
154138417DE TOGNI RICCARDOVERONA FORCE RUN03:39:28 0
15517216TANGEL ALLEGRAINDOMITI03:40:12 0
156139102PERISSINOTTO MARCOINDIVIDUALE03:40:55 0
157140331FINOTTI ALBINOINDIVIDUALE03:41:08 0
15818352PORTALEONE SARAINDIVIDUALE03:44:54 0
159141244GUERNIERI VALERIODONKEY WARRIORS TEAM03:45:01 0
160142252FASSINO MARCOINFERNO TEAM03:45:07 0
161143370FENU ANDREANATURE RACE03:46:13 0
162144323CAPUCCI ERIKROMAGMA WILDE RACE03:46:57 0
163145158IOZZELLI DONATOTEAMOCRHEROES03:49:26 0
164146107FERRARI RICCARDOINDIVIDUALE03:49:57 0
165147184MIOTTO NICOL“INDIVIDUALE03:50:01 0
166148181TABOZZI ELIAINDIVIDUALE03:50:01 0
167149432MASALA ENRICOANIMALS TEAM OCR03:50:13 0
168150265TOGNOLI RENATO VITTORIOMAD4MUD.IT03:50:48 0
16919303DELMENICO GIULIATEAM DAS03:50:49 0
170151388ZANNI ANDREAINDIVIDUALE03:51:19 0
171152198GIUBERTONI ANDREATEAM TRIVELLINI03:54:26 0
172153248NEGRO SIMONEFTP TEAM03:54:50 0
17320304RODRIGUEZ ROCIOINFERNO TEAM03:56:31 0
17421270GALEAZZI BEATRICEMERREL03:56:39 0
175154339CIPOLLA FRANCESCOBOMBER03:57:07 0
176155156MORRA CARMINEINDIVIDUALE03:57:15 0
177156196CARLETTI MASSIMODIRTY DANCER03:59:16 0
17822382DOMINICI BARBARAINDIVIDUALE03:59:41 0
179157338ROMAGNOLI STEFANOINDIVIDUALE04:01:06 0
18023214PRIEL HERRERA LILIANNEANIMALS OCR TEAM04:01:12 0
181158391SGROI SEBASTIANOTEAM VIBRAM04:04:38 0
182159277MARCHESI MATTIANEVER GIVE UP04:05:06 0
18324227BATTIATI ADELEMAXIMUS CROSS RUN04:05:11 0
184160365FORNASARI MAICOL GIUSEPPEDONKEY WARRIORS TEAM04:05:43 0
185161355CATELLANI ANDREADONKEY WARRIORS TEAM04:05:57 0
186162208BREVEGLIERI CRISTIANINDIVIDUALE04:06:58 0
187163207FRANZONI DIEGOINDIVIDUALE04:06:59 0
18825262CURTARELLI LISADONKEY WARRIORS TEAM04:07:08 0
18926381GHEZZI SOFIAINDIVIDUALE04:07:29 0
190164298BERTA PAOLOSHB TEAM04:08:00 0
191165376GIANELLI GABRIELEINDIVIDUALE04:08:17 0
192166337TAVERNA GIANLUCAINDIVIDUALE04:09:56 0
193167250GALLESI LUCAGALO04:10:31 0
194168328PARIS LUCAINDIVIDUALE04:10:32 0
195169260DI DATO MANUELLIFE REVOLUTION 201604:12:35 0
196170371RONCHI LEANDROINDIVIDUALE04:12:40 0
197171246LETTIERI GIANLUCAINDIVIDUALE04:13:08 0
198172336GIRAUDO FEDERICOTEAM DAS04:14:04 0
199173259BELLACCI FRANCESCOINDOMITI04:15:18 0
200174111TESTATONDA TULLIO ALBERTODAJEAROPPE04:16:50 0
201175366BRASCA SANDROINDIVIDUALE04:16:50 0
202176134VECCHI FRANCESCOINDIVIDUALE04:16:51 0
203177340FREGNAN GABRIELEBOMBER04:17:12 0
204178380COLOMBE ROBERTOINDIVIDUALE04:18:48 0
2050103Vecchio AndreaINDIVIDUALENC 0
2060104Magagnoli FabioINDIVIDUALENC 0
2070106Carioti SalvoINDIVIDUALENC 0
2080108Buonavita AlessandroNEW GYM SPORT SSDNC 0
2090109Lamanna NoemiNEW GYM SPORT SSDNC 0
2100112pomili matteoDajearoppeNC 0
2110113Galbiati EnricoINDIVIDUALENC 0
2120115MARCONI PAOLAINDIVIDUALENC 0
2130116Tripodi FedericoCrossfit Friends 21:00NC 0
2140120nestasio stefanoINDIVIDUALENC 0
2150121Pacher ThomasPacher'sNC 0
2160123Ognibene AndreaINDIVIDUALENC 0
2170129Iaria RiccardoINDIVIDUALENC 0
2180131Iacomino MicheleWild Team - Clan RebeldeNC 0
2190132Carusetta DeboraNEW GYM SPORT SSDNC 0
2200133de biasi giuseppeNEW GYM SPORT SSDNC 0
2210135Semakula JovinPROCOSMET ITALYNC 0
2220137Andaloro TizianaSHB TeamNC 0
2230138Lungo GiovanniNEW GYM SPORT SSDNC 0
2240144petracchiola danieleINDIVIDUALENC 0
2250145lavazza alessioINDIVIDUALENC 0
2260147MOSCHINI LORENZOINDIVIDUALENC 0
2270149Masciangelo CarmineINDIVIDUALENC 0
2280155Bartoli SaraINDIVIDUALENC 0
2290159Esposito AndreaCROSS SPORT RIMININC 0
2300160PERSICO PAOLANEVER GIVE UPNC 0
2310166Cardelli FedericoINDIVIDUALENC 0
2320169castiello fabioINDIVIDUALENC 0
2330170boffelli michelaNEVER GIVE UPNC 0
2340171Pierluigi GianniINDIVIDUALENC 0
2350173Magrini FabrizioINDIVIDUALENC 0
2360176Ronchese MarcoINDIVIDUALENC 0
2370178Comisso RobertaNEW GYM SPORT SSDNC 0
2380182Pucciarelli LucaGli ScompagnatiNC 0
2390186Freggiaro AlessioDIRTY DANCERNC 0
2400187Nobile FrancescaMaximus Cross RunNC 0
2410188Arghire GeorgianaINDIVIDUALENC 0
2420197Truzzi StefanoTeam TrivelliniNC 0
2430199Agnese SonciniTEAM DASNC 0
2440213iotti davideDIRTY DANCERNC 0
2450218Zappa StefanoSHB TeamNC 0
2460224CARACCI GIORGIAMaximus Cross RunNC 0
2470225Pierpaoli DanielaMaximus Cross RunNC 0
2480226catracchia lucaMaximus Cross RunNC 0
2490228fratarcangeli massimoMaximus Cross RunNC 0
2500229Bevolo Maurizio5OltreNC 0
2510231De Pra iacopoANIMALS OCR TEAMNC 0
2520235Moretti ilariaINDIVIDUALENC 0
2530236la manna valentina giadaINDIVIDUALENC 0
2540238CAVALLIERO ANDREABanane e SchiaffoniNC 0
2550240GIUNTA MARCELLOTEAM DASNC 0
2560249Padroni GrazianoINDIVIDUALENC 0
2570254Bonfigli SilviaINFERNO TEAMNC 0
2580261LOVATO ALESSIOLIFE REVOLUTION 2016NC 0
2590266MATTIONI MANUELMANUELNC 0
2600268GIANNITTI PIETROMENS SANA MUDDERS SIENANC 0
2610271ZAGO MARTINOMOHICANINC 0
2620273LEPORE SILVANOMUD RUNNC 0
2630275Natali ThomasNEVER GIVE UPNC 0
2640279TROPEA MASSIMILIANOTEAM DASNC 0
2650280MARINO GIULIO MATTEOINDIVIDUALENC 0
2660281DOZIO LUCAINDIVIDUALENC 0
2670282CAVICCHIOLO LUCA GIUSEPPEINDIVIDUALENC 0
2680283Caponeri GianleonardoINDIVIDUALENC 0
2690284Di Geronimo ManuelOCR TEAM ITALYNC 0
2700287SERAFINELLI GIANLUCAREEBOK OCR TEAM ITALYNC 0
2710289Terino AlessioREEBOK OCR TEAM ITALYNC 0
2720292Corradini IlariaREEBOK OCR TEAM ITALYNC 0
2730293TONNICCHI FEDERICOREEBOK OCR TEAM ITALYNC 0
2740294BIANCHI STEFANOSHB TeamNC 0
2750295PERRONE IDA ANNASHB TeamNC 0
2760296ZORZETTO SIMONESHB TeamNC 0
2770297PEDRANI FEDERICASHB TeamNC 0
2780300RADAELLI DAVIDESHB TeamNC 0
2790305LO GRANDE GIOVANNIINFERNO TEAMNC 0
2800310bertolasi lucaPROCOSMET ITALYNC 0
2810314FIORI VALERIOTHE CREEZY RUMNC 0
2820316MAIOLLI MAUROTORNADO YOT-ROOM 26NC 0
2830318de simone arturoUBIMAIORNC 0
2840319appoggi simoneUBIMAIORNC 0
2850320Feliz Dorkawellfit run muddersNC 0
2860321GASPARINI MAUROWGG-88NC 0
2870326LETTIERI GIANLUCAFORCE ONENC 0
2880327Lucidi GiulianoINDIVIDUALENC 0
2890329Lovato DanielaDonkey Warriors TeamNC 0
2900346Brondi MarcoVerona Force RunNC 0
2910348De Togni RiccardoVerona Force RunNC 0
2920349Balicco AliceINDIVIDUALENC 0
2930350Siccardi AndreaKarma SpartanNC 0
2940351Vargiu AndreaINDIVIDUALENC 0
2950359bignotti giuliaTEAM DASNC 0
2960360Fraschetta AndreaINDIVIDUALENC 0
2970367Valtorta MatteoTEAM VIBRAMNC 0
2980372Pavan MattiaSHB TeamNC 0
2990375Milan MarcoINDIVIDUALENC 0
3000379PILOTTA ALESSANDROINDIVIDUALENC 0
3010392Costetti AntonioINDIVIDUALENC 0
3020394Campanaro FedericoWild Team - Clan RebeldeNC 0
3030397Isabello MonicaTEAM WRINC 0
3040398vacaro emanuelecrosspowerNC 0
Righe per pagina::     TUTTE    |   30   |   50   |   100   Pagina:   | 1 | | 2 | | 3 | | 4 | | 5 | | 6 | | 7 |